Location: Cerageto
(44.1667°N, 10.4167°E)
Time: 03:35:49
(UTC+00:00)

Daily predictions for brighter satellites

Satellite Brightness Start Highest point End
(mag) Time Altitude Azimuth Time Altitude Azimuth Time Altitude Azimuth
Cosmos 1825 2.1 00:13:02 71° ESE 00:13:13 73° E 00:16:59 10° NNE
Cosmos 540 Rocket 3.7 00:15:11 42° SSE 00:16:33 56° ESE 00:21:33 10° NNE
DELTA 2 R/B (1) 3.9 00:16:57 42° SSE 00:17:01 42° SSE 00:22:13 10° E
Cosmos 1408 3.0 00:19:18 49° W 00:19:22 49° WNW 00:22:58 10° N
NOSS 2-2 (E) 4.5 00:20:42 26° ESE 00:20:42 26° ESE 00:23:22 10° ENE
Cosmos 990 Rocket 3.9 00:16:05 10° NNW 00:21:15 68° WSW 00:22:37 47° S
SL-16 R/B 3.6 00:19:56 17° WSW 00:23:26 30° NW 00:28:24 10° N
Cosmos 405 Rocket 2.5 00:23:36 68° W 00:23:45 70° W 00:27:26 10° N
Cosmos 841 Rocket 3.8 00:23:03 40° SSE 00:24:36 56° ESE 00:29:38 10° NNE
Cosmos 2058 2.8 00:24:22 60° SSE 00:25:01 75° E 00:29:07 10° NNE
Cosmos 1242 Rocket 3.7 00:21:46 10° N 00:25:09 37° ENE 00:26:09 30° ESE
USA 229 DEB 3.8 00:22:35 28° WSW 00:26:08 66° NW 00:32:59 10° NNE
USA 229 3.8 00:22:43 28° SW 00:26:15 67° NW 00:33:05 10° NE
Cosmos 1656 Rocket 3.7 00:21:17 10° NNW 00:27:01 80° ENE 00:30:16 27° SSE
Cosmos 2221 2.7 00:22:51 10° N 00:27:09 64° E 00:28:24 42° SE
X-37B 1.0 00:28:47 59° ENE 00:28:47 59° ENE 00:31:31 10° E
Nadezhda 4 Rocket 3.9 00:30:48 36° S 00:33:31 83° E 00:39:40 10° N
NOSS 2-2 (C) 4.3 00:34:05 28° ESE 00:34:05 28° ESE 00:37:02 10° ENE
Cosmos 1898 Rocket 3.5 00:29:22 10° NNW 00:34:33 66° WSW 00:36:11 42° S
Cosmos 1937 Rocket 3.5 00:29:32 10° NNW 00:34:54 89° WSW 00:37:19 34° SSE
NOSS 3-1 (C) 4.5 00:31:11 16° WSW 00:35:13 38° NW 00:41:10 10° NNE
YAOGAN 11 4.1 00:35:34 50° SSW 00:36:32 67° WSW 00:41:02 10° NNW
Cosmos 2369 Rocket 2.3 00:31:28 10° NNW 00:37:05 56° WSW 00:38:58 38° SSW
USA 307 3.3 00:38:07 43° SSE 00:38:25 44° SE 00:42:28 10° ENE
Aureole 3 Rocket 4.0 00:34:58 10° N 00:38:51 48° E 00:41:59 21° SE
CREW DRAGON DEMO-1 DEB 4.4 00:40:05 24° NNW 00:40:08 24° NNW 00:42:14 10° NE
SJ 16-02 3.3 00:37:45 10° WNW 00:40:01 15° W 00:40:01 15° W
ARGOS Delta rocket 4.3 00:38:50 10° NNE 00:44:20 68° E 00:46:49 33° S
NOSS 3-1 (A) 3.9 00:42:41 23° WSW 00:45:56 50° NW 00:52:07 10° NNE
ATLAS 5 CENTAUR R/B 1.9 00:48:04 38° SSE 00:48:45 42° ESE 00:52:48 10° NE
Cosmos 2263 4.2 00:45:10 10° NNW 00:50:45 60° WSW 00:53:06 34° S
CZ-4 R/B 4.1 00:47:22 10° N 00:51:55 54° WNW 00:53:33 36° SW
Helios 1B rocket 3.1 00:48:45 10° NNE 00:52:43 47° E 00:54:08 32° SSE
Cosmos 1814 Rocket 4.1 00:51:51 35° S 00:53:59 69° ESE 00:59:08 10° NNE
Cosmos 1633 2.8 00:53:22 47° SE 00:54:04 58° E 00:57:33 10° NNE
USA 308 3.0 00:53:27 47° S 00:54:17 58° SE 00:58:29 10° ENE
ADEOS Rocket 4.2 00:47:25 10° SE 00:54:20 49° ENE 01:00:38 10° N
Cosmos 1932 4.4 00:50:06 10° NW 00:56:14 63° WSW 01:00:03 24° SSE
UNK 3.9 00:54:26 25° SSE 00:57:01 69° ENE 01:01:39 10° N
Helios 1A 3.5 01:00:06 37° WSW 01:00:42 39° W 01:04:40 10° NNW
Cosmos 1606 2.6 00:59:20 10° N 01:03:11 80° W 01:04:13 47° S
Cosmos 1570 Rocket 4.0 01:01:44 34° SSW 01:04:03 84° ESE 01:09:19 10° NNE
SL-16 R/B 2.5 00:59:52 21° SSE 01:04:17 89° W 01:10:30 10° NNW
Cosmos 1933 4.5 01:04:44 10° N 01:08:38 41° ENE 01:11:43 15° SE
Cosmos 372 Rocket 3.9 01:04:36 10° NNW 01:09:52 78° WSW 01:13:10 23° S
USA 290 2.1 01:11:15 60° S 01:11:46 84° ESE 01:14:59 10° NNE
USA 305 2.8 01:10:31 38° SW 01:12:07 86° SE 01:16:23 10° NE
CZ-4C R/B 4.1 01:11:36 10° SE 01:14:24 15° ESE 01:17:27 10° ENE
Cosmos 1092 Rocket 3.9 01:11:05 28° SSW 01:14:33 81° W 01:20:44 10° N
Lacrosse 4 Rocket 1.5 01:12:02 10° NNW 01:16:07 70° ENE 01:20:08 10° SE
Cosmos 2098 Rocket 4.0 01:15:08 28° SW 01:17:29 45° W 01:21:52 10° N
Cosmos 2208 Rocket 4.1 01:16:33 29° SSW 01:19:23 89° WNW 01:24:53 10° NNE
USA 267 4.4 01:19:19 21° SW 01:19:25 21° WSW 01:24:11 10° WNW
BREEZE-M R/B 2.5 01:18:12 34° SW 01:19:34 71° SSE 01:24:38 10° ENE
Meteor 2-19 Rocket 4.5 01:16:27 27° SSW 01:19:57 73° W 01:26:06 10° N
Resurs 1-4 Rocket 2.2 01:16:14 10° N 01:21:31 67° WNW 01:24:23 27° SSW
Cosmos 1437 Rocket 4.1 01:18:58 10° NW 01:22:01 22° W 01:22:18 22° W
Meteor 1-29 3.4 01:22:10 10° NNE 01:25:31 53° E 01:26:57 29° SSE
SL-4 R/B 4.0 01:23:37 10° NW 01:26:47 26° N 01:29:48 10° ENE
MINOTAUR 4 R/B 4.1 01:26:32 23° SSE 01:28:35 76° ENE 01:32:07 10° N
Cosmos 1428 Rocket 4.5 01:24:47 24° SSW 01:28:49 79° W 01:35:08 10° N
Landsat 4 4.0 01:27:37 10° NNE 01:31:22 60° ESE 01:33:22 25° S
NOSS 2-2 (D) 3.1 01:30:21 34° WSW 01:31:38 65° NW 01:35:18 10° NNE
NPP 3.7 01:27:21 10° N 01:32:43 68° WNW 01:35:57 24° SSW
ADEOS II 2.2 01:27:56 10° NNE 01:33:13 75° ESE 01:36:49 21° S
Cosmos 921 Rocket 3.9 01:32:38 24° WSW 01:34:28 36° WNW 01:38:21 10° N
USA 306 3.1 01:32:05 24° WSW 01:34:32 68° NNW 01:38:47 10° NE
Meteor 2-3 Rocket 3.8 01:31:29 20° S 01:35:25 77° E 01:41:01 10° NNE
Lacrosse 5 rocket 3.9 01:33:15 10° NNW 01:36:00 20° NNE 01:38:48 10° ENE
Cosmos 1943 4.4 01:33:25 15° WSW 01:37:11 31° NW 01:42:11 10° N
FALCON 9 DEB 2.9 01:34:19 10° WNW 01:37:43 76° SW 01:41:05 10° SE
CZ-2D R/B 2.6 01:35:11 10° N 01:40:10 47° WNW 01:43:15 22° SW
Alouette 2 Rocket 4.4 01:38:08 10° N 01:41:35 44° ENE 01:45:38 10° SSE
ASTEX 1 4.4 01:39:49 10° SSE 01:44:31 46° ENE 01:49:14 10° N
Cosmos 2151 3.3 01:44:56 26° SW 01:47:04 51° WNW 01:51:11 10° N
Cosmos 1809 Rocket 4.5 01:42:28 17° S 01:47:25 85° E 01:53:38 10° N
IDEFIX/ARIANE 42P 3.1 01:42:28 10° NNE 01:47:37 54° E 01:52:17 12° S
AQUA 4.2 01:47:40 10° N 01:52:17 50° WNW 01:55:17 21° SW
Cosmos 1437 4.3 01:54:05 10° NW 01:55:51 17° W 01:55:51 17° W
Meteor 1-26 Rocket 4.3 01:50:39 10° NNW 01:56:32 81° W 02:02:30 10° S
DELTA 2 R/B (1) 3.7 01:57:41 10° WSW 02:03:03 54° S 02:08:27 10° ESE
X-37B 0.5 02:01:51 10° W 02:05:01 71° SSW 02:08:11 10° ESE
CBERS-1 4.0 02:01:45 10° NNE 02:06:55 89° WNW 02:11:27 14° SSW
BREEZE-M DEB (TANK) 2.8 02:04:56 10° WNW 02:07:08 39° NNE 02:09:44 10° E
IRS-1D 3.5 02:02:01 10° N 02:07:08 71° WNW 02:11:14 15° SSW
Cosmos 1812 3.4 02:07:12 10° N 02:10:59 55° E 02:14:45 10° SSE
Cosmos 1553 Rocket 4.1 02:05:07 10° NNW 02:11:20 63° W 02:17:24 10° S
Cosmos 2292 Rocket 3.4 02:09:52 21° SW 02:11:21 36° WNW 02:14:07 10° N
SL-08 R/B 4.5 02:07:47 10° SE 02:12:13 45° ENE 02:16:45 10° N
CZ-2C R/B 4.4 02:11:35 10° NE 02:15:35 24° E 02:19:28 10° SSE
USA 281 3.2 02:10:02 10° SSE 02:16:37 88° WSW 02:23:15 10° NNW
FALCON 9 DEB 3.6 02:13:33 10° NW 02:16:39 56° NNE 02:19:43 10° ESE
Meteor 2-14 Rocket 4.5 02:11:40 13° SSW 02:17:09 70° W 02:23:17 10° N
S3M 4.0 02:11:15 10° N 02:17:26 82° W 02:23:39 10° S
GPS 2-04 Rocket1 3.9 02:15:43 17° SW 02:17:26 23° S 02:20:32 10° SE
Cosmos 1782 3.0 02:13:58 10° NNW 02:17:53 54° W 02:21:41 11° S
USA 307 4.0 02:14:24 10° W 02:18:26 40° NNW 02:22:28 10° NE
Meteor 2-21 Rocket 4.5 02:12:38 10° S 02:18:46 86° W 02:25:01 10° N
Cosmos 1271 Rocket 2.6 02:16:06 10° NNW 02:19:51 79° W 02:23:36 10° S
MSX 4.0 02:14:14 10° NNE 02:20:01 77° ESE 02:25:46 10° S
CZ-4C R/B 2.9 02:20:48 10° S 02:24:14 64° WSW 02:27:40 10° NNW
ERBS 2.2 02:24:39 16° SW 02:27:09 76° NW 02:30:24 10° NE
Helios 1B rocket 4.4 02:25:00 10° NNW 02:27:35 16° WNW 02:30:09 10° WSW
Cosmos 1328 Rocket 3.6 02:27:36 10° NNW 02:31:54 59° W 02:36:12 10° S
NOSS 3-2 (A) 4.4 02:25:20 10° NW 02:32:54 76° NE 02:41:30 10° SE
ATLAS 5 CENTAUR R/B 3.2 02:30:11 10° W 02:33:32 24° NW 02:37:15 10° NNE
FALCON 9 DEB 2.7 02:30:31 10° WNW 02:33:35 75° SW 02:36:39 10° SE
USA 308 4.2 02:30:33 10° W 02:34:28 34° NNW 02:38:23 10° NE
Cosmos 1743 Rocket 4.5 02:30:20 10° SSE 02:34:33 48° E 02:38:49 10° NNE
Spot 1 4.5 02:29:54 10° S 02:34:57 65° WSW 02:39:50 10° NNW
SeaSat 1 2.5 02:31:16 10° NNE 02:36:13 87° WNW 02:41:09 10° SSW
Meteor 1-10 Rocket 4.5 02:32:12 10° N 02:38:06 79° E 02:43:52 10° SSE
ADEOS Rocket 4.0 02:33:20 10° SSW 02:39:53 35° W 02:45:58 10° NNW
FALCON 9 DEB 2.8 02:37:21 10° WNW 02:40:29 85° SW 02:43:35 10° SE
Meteor 2-6 Rocket 4.3 02:35:00 10° NNW 02:40:54 77° W 02:46:37 10° S
FALCON 9 DEB 2.8 02:40:47 10° WNW 02:43:52 63° SW 02:46:54 10° SE
ALOS 4.3 02:40:25 10° NE 02:44:23 27° E 02:48:19 10° SSE
Cosmos 1980 Rocket 4.5 02:41:12 10° N 02:46:05 30° NE 02:50:57 10° ESE
Cosmos 1833 Rocket 3.2 02:41:43 10° S 02:47:15 60° ESE 02:52:49 10° NNE
SL-16 R/B 4.2 02:45:29 10° WSW 02:48:41 14° W 02:51:53 10° WNW
Cosmos 2228 Rocket 4.2 02:45:38 10° N 02:50:01 49° ENE 02:54:20 10° SSE
IRS-P3 4.3 02:46:28 10° N 02:51:45 63° WNW 02:56:59 10° SSW
Tianhe-1 2.7 02:49:46 10° SSW 02:52:17 22° SSE 02:54:50 10° ESE
Lacrosse 4 Rocket 3.3 02:53:05 10° W 02:54:10 11° WSW 02:55:13 10° WSW
Meteor 1-27 Rocket 4.2 02:48:36 10° N 02:54:10 66° ENE 02:59:38 10° SSE
Cosmos 1125 Rocket 4.4 02:49:51 10° NW 02:54:20 29° W 02:58:48 10° SSW
Cosmos 1151 Rocket 4.2 02:51:52 10° NNW 02:55:22 25° W 02:58:50 10° SW
Cosmos 2266 Rocket 4.2 02:50:11 10° SSW 02:56:08 53° WNW 03:02:04 10° N
CZ-4B R/B 3.7 02:54:17 10° N 02:59:32 70° WNW 03:04:42 10° SSW
Resurs 1-4 Rocket 4.4 02:59:23 10° NW 03:00:20 10° NW 03:01:17 10° WNW
ARIANE 5 R/B 2.6 02:55:44 10° N 03:00:41 64° WNW 03:05:37 10° SSW
CZ-4C R/B 2.1 02:57:01 10° SW 03:01:52 73° NW 03:07:45 10° NE
